Lid_Strength_Index
-0 -0 -1 1 7 7 9 9 7 7 7 6 6 6 6 5 6 8 1 -0 -0 -0 -1 -1 -1 -1 -2 -2 -1 -1 -1 -1 -1 -1 -1 -1 -1 -1 -1 -1 -1 -1 -1 -1 -1 -1 -1 -1 -1
0 1 0 3 8 11 10 8 8 6 6 6 6 6 6 6 4 3 2 -0 -1 -1 -1 -1 -1 -1 -1 -1 -1 -1 -1 -1 -1 -1 -1 -1 -1 -1 -1 -1 -1 -1 -1 -1 -1 -1 -1 -1 -1
1 2 3 6 8 10 10 7 7 7 6 6 6 5 5 5 4 2 0 -0 -1 -1 -1 -1 -1 -1 -1 -1 -1 -1 -1 -1 -2 -1 -2 -1 -1 -1 -1 -1 -1 -1 -1 -1 -1 -1 -1 -1 -1
1 2 4 8 10 8 8 7 6 6 6 6 5 6 5 3 3 2 0 -0 -0 -1 -1 -1 -1 -1 -1 -1 -1 -1 -1 -2 -2 -2 -2 -1 -1 -1 -1 -1 -1 -1 -1 -1 -1 -0 -0 0 0
2 4 8 9 9 8 7 6 6 7 6 6 6 6 6 4 3 2 0 -0 0 -0 -1 -1 -1 -1 -1 -1 -1 -1 -1 -2 -2 -2 -1 -1 -1 -1 -1 -1 -1 -1 -1 -1 -0 -0 1 1 1
5 4 9 10 9 8 7 6 6 6 6 6 6 6 5 4 4 2 -0 0 -0 -0 -1 -1 0 0 -1 -1 -1 -1 -1 -2 -2 -2 -2 -1 -1 -1 -2 -2 -2 -1 -1 -0 -0 0 1 1 2
6 7 9 9 9 8 7 6 7 6 6 6 5 6 4 4 3 2 0 -0 -0 -1 -1 -1 -1 -1 1 -0 -1 -1 -1 -2 -2 -2 -2 -1 -2 -2 -2 -2 -1 -1 -0 -1 0 1 1 2 3
4 6 9 8 9 9 6 7 6 6 6 5 5 6 6 4 3 1 0 0 -0 -0 -0 -1 -1 -1 -1 -1 1 -0 -1 -1 -1 -2 -1 -1 -1 -2 -1 -1 -1 -0 -0 0 1 1 2 3 4
6 8 9 9 9 8 6 7 6 6 6 6 5 4 4 4 3 2 1 1 1 1 -0 -1 -1 -1 -1 -1 -0 1 1 0 -1 -1 0 1 -2 -1 0 0 -1 -0 1 1 2 3 3 4 5
6 8 9 7 7 8 7 7 6 7 6 5 5 4 5 5 3 3 2 2 2 1 1 -0 -0 -1 -1 -1 -1 -1 -1 -1 -1 -1 -0 -1 -1 0 1 1 0 -0 1 2 3 4 6 8 7
7 9 7 8 7 8 8 7 6 7 7 5 5 4 4 5 4 4 3 2 2 1 1 0 -0 -1 -1 -1 -1 -1 -1 -1 -1 -1 -1 -1 0 1 1 1 1 1 3 3 4 6 8 8 8
9 7 7 7 8 8 8 7 8 7 6 4 4 4 4 5 5 4 3 2 1 1 1 0 -0 -0 -1 -1 -1 -1 -1 -1 -1 -1 -1 0 1 2 2 2 2 2 3 4 6 8 8 8 8
9 8 8 7 8 8 7 8 8 8 5 4 4 5 5 5 4 4 4 3 2 2 1 0 -0 -0 -0 -0 -1 -1 -1 -1 -1 -1 0 1 2 2 3 3 3 3 4 6 8 8 9 9 9
9 9 8 8 8 8 9 8 8 7 6 6 6 6 5 5 5 4 4 5 4 3 2 1 0 -0 -0 -0 -0 -0 -1 -1 -1 -1 0 2 2 3 4 4 4 5 6 7 8 8 9 9 9
9 10 9 9 9 9 9 10 10 7 7 8 7 6 6 6 6 6 4 4 4 4 3 2 1 1 0 0 -0 -0 -0 -0 -0 1 1 2 3 4 5 5 5 6 8 8 9 9 9 9 10
11 11 12 9 11 10 9 12 8 7 8 8 7 7 6 6 5 5 5 5 4 4 4 3 3 2 1 1 0 0 0 1 1 1 2 3 4 5 5 6 6 7 8 9 9 10 10 10 10
11 14 13 12 10 11 10 12 9 8 9 9 8 8 7 7 6 5 5 6 5 5 5 5 4 3 3 2 1 1 1 1 2 2 2 3 4 5 6 6 7 8 9 9 10 10 10 10 10
13 14 13 14 10 11 12 12 10 9 9 9 9 8 8 7 7 6 6 6 6 6 5 5 5 4 4 3 2 2 2 2 2 2 3 4 5 6 7 7 7 9 9 10 10 10 10 10 10
12 13 14 12 11 12 12 12 11 10 9 9 9 8 8 8 7 7 7 6 6 6 6 6 6 6 5 5 4 4 4 4 4 3 4 5 5 6 7 7 8 9 10 10 10 11 11 12 11
12 13 13 12 11 13 12 13 11 10 10 9 9 9 8 8 8 7 7 7 7 7 7 7 7 7 6 6 5 5 5 5 4 4 5 5 6 6 7 8 8 9 10 10 11 11 12 11 12
12 14 13 14 12 12 13 13 12 10 10 9 9 9 9 9 8 8 8 8 8 8 8 8 8 7 7 7 7 7 7 7 7 7 7 7 7 7 8 8 8 9 9 10 10 11 11 12 12
14 11 13 14 15 16 13 17 12 10 10 9 9 10 9 9 9 8 9 9 9 9 8 8 8 8 8 8 8 8 8 9 8 8 8 8 8 8 8 8 8 9 9 10 10 10 10 10 12
13 13 14 14 15 16 15 16 12 11 12 10 10 10 10 10 10 11 10 10 10 10 10 9 9 9 9 9 8 8 8 8 8 8 8 8 9 9 9 9 9 9 10 9 10 11 11 10 10
12 13 13 15 15 17 14 15 14 12 12 11 11 11 11 11 11 11 11 11 12 11 11 10 10 10 9 9 9 9 9 9 9 9 9 9 9 10 10 10 10 10 10 10 10 10 11 11 11
13 14 17 16 17 16 15 15 14 11 11 12 12 12 11 11 12 12 12 12 12 12 12 12 12 12 11 10 10 9 9 9 9 9 9 9 10 10 10 10 10 10 11 11 11 11 11 11 12
13 13 17 22 19 17 13 16 12 10 12 12 11 11 12 12 12 13 13 12 12 12 12 12 12 12 12 12 11 11 10 10 9 9 9 9 9 9 10 10 10 10 11 11 11 11 12 11 12
14 15 11 15 15 18 15 12 11 12 12 12 12 12 13 13 13 13 12 13 12 12 12 12 12 12 12 12 12 12 11 11 10 10 9 9 9 10 10 10 11 10 11 11 11 12 12 12 12
12 11 15 14 21 21 16 14 14 13 14 13 12 13 12 12 12 12 12 12 12 11 11 11 11 12 12 12 12 11 11 11 11 11 11 10 10 10 10 10 11 10 11 11 12 12 12 13 13
13 14 14 14 16 20 21 15 10 12 13 13 13 13 13 13 13 12 12 12 12 12 12 12 11 12 12 11 11 11 11 11 11 11 11 11 11 11 11 11 11 11 11 12 12 12 12 13 13
10 11 11 16 17 15 16 15 9 12 13 13 14 14 13 13 13 12 12 12 12 12 12 12 12 12 12 12 12 11 11 11 12 12 11 11 12 12 11 11 11 12 12 12 13 13 13 13 14